Home > Weather > Bentonville > Past weeks

Flag for USA Past Weather in Bentonville, Arkansas, USA — Yesterday and Last 2 Weeks

Now
81 °F

Scattered clouds.


Feels Like: 82 °F
Forecast: 64 / 79 °F
Wind: 14 mph from West

Location: Bentonville Weather Observing Station

Current Time: May 24, 2016 at 12:51:05 PM

Latest Report: May 24, 2016 at 12:35 PM


Visibility: 10 mi

Pressure: 30.02 "Hg

Humidity: 58%

Dew Point: 64 °F

Location of BentonvilleLocation

Past Weather in Bentonville — Graph

°F

Bentonville Temperature Yesterday

Maximum temperature yesterday: 75 °F (at 12:35 PM)
Minimum temperature yesterday: 59 °F (at 6:35 AM)
Average temperature yesterday: 65 °F

High & Low Weather Summary for the Past Weeks

 TemperatureHumidityPressure
High84 °F (May 10, 3:35 PM)94% (May 21, 8:15 AM)30.28 "Hg (May 21, 8:15 AM)
Low46 °F (May 14, 5:35 AM)33% (May 12, 4:55 PM)29.68 "Hg (May 9, 6:15 PM)
Average63 °F66%30.06 "Hg
* Reported May 9 11:15 AM — May 24 11:35 AM, Bentonville, Weather by CustomWeather, © 2016

Note: Actual official high and low records may vary slightly from our data, if they occured in-between our weather recording intervals... More about our weather records

Advertising

Bentonville Weather History for the Previous 24 Hours

Scroll right to see more
 ConditionsComfort  
Time TempWeatherWind HumidityBarometerVisibility
11:35 AM
Tue, May 24
81 °FSunny.9 mph58%29.97 "Hg10 mi
11:15 AM79 °FSunny.12 mph65%29.96 "Hg10 mi
10:55 AM79 °FSunny.9 mph65%29.97 "Hg10 mi
10:35 AM79 °FPassing clouds.13 mph65%29.98 "Hg10 mi
10:15 AM77 °FSunny.12 mph65%29.98 "Hg10 mi
9:55 AM75 °FSunny.16 mph69%29.99 "Hg10 mi
9:35 AM75 °FSunny.12 mph69%29.99 "Hg10 mi
9:15 AM73 °FSunny.14 mph69%29.99 "Hg10 mi
8:55 AM73 °FSunny.10 mph74%30.00 "Hg10 mi
8:35 AM72 °FSunny.8 mph78%29.99 "Hg10 mi
8:15 AM72 °FSunny.7 mph73%30.00 "Hg10 mi
7:55 AM70 °FSunny.8 mph78%29.99 "Hg10 mi
7:35 AM70 °FSunny.6 mph78%29.99 "Hg10 mi
7:15 AM68 °FSunny.3 mph78%29.98 "Hg10 mi
6:55 AM68 °FPassing clouds.6 mph78%29.98 "Hg10 mi
6:35 AM68 °FOvercast.6 mph78%29.97 "Hg10 mi
6:15 AM66 °FOvercast.6 mph83%29.96 "Hg10 mi
5:55 AM66 °FPassing clouds.5 mph83%29.95 "Hg10 mi
5:35 AM66 °FOvercast.6 mph83%29.94 "Hg10 mi
5:15 AM66 °FPassing clouds.6 mph83%29.94 "Hg10 mi
4:55 AM64 °FPassing clouds.3 mph88%29.94 "Hg10 mi
4:35 AM64 °FPassing clouds.5 mph88%29.94 "Hg10 mi
4:15 AM64 °FPassing clouds.6 mph83%29.93 "Hg10 mi
3:55 AM64 °FPassing clouds.5 mph83%29.92 "Hg10 mi
3:35 AM64 °FPassing clouds.5 mph83%29.92 "Hg10 mi
3:15 AM64 °FPassing clouds.5 mph83%29.93 "Hg10 mi
2:55 AM64 °FPassing clouds.5 mph83%29.93 "Hg10 mi
2:35 AM64 °FPassing clouds.5 mph83%29.94 "Hg10 mi
2:15 AM64 °FPartly cloudy.3 mph83%29.94 "Hg10 mi
1:55 AM64 °FPassing clouds.No wind83%29.95 "Hg10 mi
1:35 AM63 °FPassing clouds.3 mph83%29.95 "Hg10 mi
1:15 AM64 °FPassing clouds.3 mph83%29.96 "Hg10 mi
12:55 AM64 °FPartly cloudy.No wind83%29.97 "Hg10 mi
12:35 AM63 °FOvercast.5 mph88%29.96 "Hg10 mi
12:15 AM63 °FMostly cloudy.5 mph83%29.96 "Hg10 mi
11:55 PM
Mon, May 23
63 °FPassing clouds.5 mph83%29.95 "Hg10 mi
11:35 PM63 °FPassing clouds.6 mph83%29.94 "Hg10 mi
11:15 PM63 °FClear.3 mph83%29.95 "Hg10 mi
10:55 PM63 °FClear.No wind83%29.95 "Hg10 mi
10:35 PM63 °FClear.No wind83%29.94 "Hg10 mi
10:15 PM63 °FClear.5 mph83%29.94 "Hg10 mi
9:55 PM63 °FPassing clouds.5 mph83%29.94 "Hg10 mi
9:35 PM63 °FPassing clouds.5 mph88%29.93 "Hg10 mi
9:15 PM63 °FPartly sunny.5 mph88%29.93 "Hg10 mi
8:55 PM63 °FBroken clouds.3 mph88%29.94 "Hg10 mi
8:35 PM63 °FPartly sunny.No wind83%29.94 "Hg10 mi
8:15 PM64 °FPassing clouds.6 mph83%29.92 "Hg10 mi
7:55 PM64 °FBroken clouds.7 mph83%29.93 "Hg10 mi
7:35 PM64 °FMostly cloudy.5 mph83%29.93 "Hg10 mi
7:15 PM64 °FLow clouds.6 mph83%29.92 "Hg10 mi
6:55 PM64 °FBroken clouds.6 mph83%29.91 "Hg10 mi
6:35 PM64 °FBroken clouds.3 mph83%29.94 "Hg10 mi
5:55 PM64 °FScattered clouds.5 mph88%29.94 "Hg10 mi
5:35 PM64 °FPartly sunny.3 mph83%29.97 "Hg4 mi
5:15 PM63 °FOvercast.5 mph88%29.99 "Hg3 mi
4:55 PM63 °FMostly cloudy.8 mph88%29.99 "Hg5 mi
4:35 PM64 °FMostly cloudy.7 mph83%29.99 "Hg7 mi
4:15 PM64 °FCloudy.5 mph78%29.99 "Hg7 mi
3:55 PM64 °FOvercast.8 mph83%29.97 "Hg9 mi
3:35 PM70 °FOvercast.10 mph64%29.95 "Hg10 mi
3:15 PM70 °FOvercast.No wind60%29.94 "Hg10 mi
2:55 PM72 °FMostly cloudy.No wind57%29.94 "Hg10 mi
2:35 PM72 °FPartly sunny.5 mph57%29.94 "Hg10 mi
2:15 PM72 °FMostly cloudy.8 mph61%29.94 "Hg10 mi
1:55 PM72 °FPartly sunny.5 mph57%29.94 "Hg10 mi
1:35 PM72 °FScattered clouds.7 mph57%29.94 "Hg10 mi
1:15 PM75 °FScattered clouds.13 mph50%29.94 "Hg10 mi
12:55 PM75 °FSunny.10 mph50%29.94 "Hg10 mi
12:35 PM75 °FSunny.9 mph50%29.95 "Hg10 mi
12:15 PM73 °FSunny.10 mph50%29.96 "Hg10 mi
Weather by CustomWeather, © 2016

See weather overviewHow to use our weather pages